Date String (YYYY-MM-DD hh:mm:ss) UTC,Instrument flags,absolute air pressure of the measurement (hPa),sample flow rate (lpm),inlet stack bypass flow (lpm),air temperature of the measurement (°C),ambient temperature measured by the external sensor (°C),aerosol sample conditioner tube jacket temperature (°C),OPC LED temperature (°C),internal box temperature (°C),relative humidity of the measurement (%),span deviation,mass concentration of particles derived from Lorenz-Mie calculation of OPC scattering (μg/m³),mass concentration of particles derived from Lorenz-Mie calculation of OPC scattering (μg/m³),mass concentration of particles derived from Lorenz-Mie calculation of OPC scattering (μg/m³)
DateTimeUTC,F1_M11,P_M11,Q1_M11,Q2_M11,T1_M11,T2_M11,T3_M11,T4_M11,T5_M11,U1_M11,ZSPAN_M11,X0_M11,X2_M11,X1_M11
2023-07-16 13:00:00,SystemResetWarning,0834.7,4.99,000.00,029.8,027.6,000.0,038.4,031.2,15.3,0000.0,0007.55,0003.29,0002.93
2023-07-16 13:01:00,SystemResetWarning,0834.7,4.99,000.00,029.8,027.8,000.0,038.4,031.2,14.9,0000.0,0007.43,0003.27,0002.94
2023-07-16 13:02:00,SystemResetWarning,0834.8,5.00,000.00,029.8,027.9,000.0,038.4,031.3,13.9,0000.0,0007.35,0003.30,0002.95
2023-07-16 13:03:00,SystemResetWarning,0834.7,5.00,000.00,029.8,028.1,000.0,038.4,031.3,14.2,0000.0,0007.52,0003.31,0002.94
2023-07-16 13:04:00,SystemResetWarning,0834.8,5.01,000.00,029.8,028.2,000.0,038.4,031.3,14.9,0000.0,0007.98,0003.31,0002.95
2023-07-16 13:05:00,SystemResetWarning,0834.7,5.00,000.00,029.8,028.3,000.0,038.4,031.3,14.1,0000.0,0008.02,0003.33,0002.97
2023-07-16 13:06:00,SystemResetWarning,0834.7,5.00,000.00,029.9,028.3,000.0,038.4,031.4,14.7,0000.0,0008.18,0003.36,0003.00
2023-07-16 13:07:00,SystemResetWarning,0834.7,4.99,000.00,029.9,028.4,000.0,038.4,031.4,14.3,0000.0,0008.24,0003.41,0003.00
2023-07-16 13:08:00,SystemResetWarning,0834.8,5.00,000.00,029.9,028.5,000.0,038.4,031.4,14.0,0000.0,0008.19,0003.44,0003.01
2023-07-16 13:09:00,SystemResetWarning,0834.7,5.00,000.00,029.9,028.5,000.0,038.4,031.4,15.2,0000.0,0008.20,0003.49,0003.04
2023-07-16 13:10:00,SystemResetWarning,0834.7,5.00,000.00,029.9,028.6,000.0,038.4,031.5,14.9,0000.0,0008.28,0003.48,0003.05
2023-07-16 13:11:00,SystemResetWarning,0834.8,5.00,000.00,029.9,028.6,000.0,038.4,031.5,14.1,0000.0,0008.36,0003.48,0003.06
2023-07-16 13:12:00,SystemResetWarning,0835.0,5.00,000.00,030.0,028.7,000.0,038.4,031.5,14.0,0000.0,0008.47,0003.48,0003.07
2023-07-16 13:13:00,SystemResetWarning,0834.8,5.00,000.00,030.0,028.7,000.0,038.4,031.5,14.1,0000.0,0008.44,0003.51,0003.09
2023-07-16 13:14:00,SystemResetWarning,0834.7,5.00,000.00,030.0,028.5,000.0,038.4,031.5,14.1,0000.0,0008.30,0003.53,0003.09
2023-07-16 13:15:00,SystemResetWarning,0834.8,4.99,000.00,030.0,026.8,000.0,038.3,031.3,14.1,0000.0,0007.74,0003.57,0003.10
2023-07-16 13:16:00,SystemResetWarning,0834.8,5.00,000.00,029.9,025.5,000.0,038.2,031.1,14.6,0000.0,0007.96,0003.61,0003.10
2023-07-16 13:17:00,SystemResetWarning,0834.7,5.01,000.00,029.8,025.6,000.0,038.1,031.0,15.0,0000.0,0007.70,0003.60,0003.10
2023-07-16 13:18:00,SystemResetWarning,0834.7,5.00,000.00,029.7,026.0,000.0,038.2,030.9,15.4,0000.0,0007.57,0003.59,0003.11
2023-07-16 13:19:00,SystemResetWarning,0834.7,5.01,000.00,029.6,026.3,000.0,038.2,030.9,15.5,0000.0,0007.31,0003.57,0003.12
2023-07-16 13:20:00,SystemResetWarning,0834.7,5.00,000.00,029.6,026.7,000.0,038.2,030.9,16.0,0000.0,0006.93,0003.55,0003.12
2023-07-16 13:21:00,SystemResetWarning,0834.7,5.00,000.00,029.6,027.0,000.0,038.2,031.0,15.3,0000.0,0006.42,0003.57,0003.13
2023-07-16 13:22:00,SystemResetWarning,0834.8,5.00,000.00,029.6,027.3,000.0,038.2,031.0,15.4,0000.0,0006.58,0003.60,0003.13
2023-07-16 13:23:00,SystemResetWarning,0834.7,5.00,000.00,029.6,027.5,000.0,038.2,031.1,15.3,0000.0,0006.56,0003.61,0003.13
2023-07-16 13:24:00,SystemResetWarning,0834.8,4.99,000.00,029.6,027.7,000.0,038.2,031.1,15.7,0000.0,0006.57,0003.59,0003.13
2023-07-16 13:25:00,SystemResetWarning,0834.9,4.99,000.00,029.6,027.9,000.0,038.2,031.1,16.1,0000.0,0006.46,0003.56,0003.13
2023-07-16 13:26:00,SystemResetWarning,0835.3,5.00,000.00,029.7,028.0,000.0,038.2,031.2,15.7,0000.0,0006.89,0003.51,0003.13
2023-07-16 13:27:00,SystemResetWarning,0835.2,5.01,000.00,029.7,028.1,000.0,038.2,031.2,15.7,0000.0,0006.53,0003.47,0003.13
2023-07-16 13:28:00,SystemResetWarning,0835.0,5.01,000.00,029.7,028.2,000.0,038.2,031.3,15.7,0000.0,0006.40,0003.45,0003.13
2023-07-16 13:29:00,SystemResetWarning,0835.1,5.00,000.00,029.7,028.3,000.0,038.2,031.3,15.9,0000.0,0006.72,0003.45,0003.13
2023-07-16 13:30:00,SystemResetWarning,0835.2,5.00,000.00,029.7,028.4,000.0,038.2,031.3,15.6,0000.0,0007.21,0003.47,0003.13
2023-07-16 13:31:00,SystemResetWarning,0835.3,5.00,000.00,029.8,028.5,000.0,038.2,031.4,15.3,0000.0,0007.24,0003.47,0003.12
2023-07-16 13:32:00,SystemResetWarning,0835.3,5.00,000.00,029.8,028.5,000.0,038.3,031.4,16.8,0000.0,0007.12,0003.45,0003.12
2023-07-16 13:33:00,SystemResetWarning,0835.4,5.00,000.00,029.8,028.6,000.0,038.3,031.4,18.2,0000.0,0006.95,0003.46,0003.13
2023-07-16 13:34:00,SystemResetWarning,0835.4,5.00,000.00,029.9,028.2,000.0,038.2,031.4,19.8,0000.0,0006.96,0003.44,0003.13
2023-07-16 13:35:00,SystemResetWarning,0835.3,5.00,000.00,029.8,026.3,000.0,038.1,031.1,19.4,0000.0,0007.14,0003.43,0003.14
2023-07-16 13:36:00,SystemResetWarning,0835.3,5.01,000.00,029.7,025.5,000.0,038.0,031.0,20.3,0000.0,0007.12,0003.44,0003.15
2023-07-16 13:37:00,SystemResetWarning,0835.5,5.01,000.00,029.6,025.7,000.0,038.0,030.8,18.7,0000.0,0006.49,0003.46,0003.15
2023-07-16 13:38:00,SystemResetWarning,0835.5,4.98,000.00,029.6,026.1,000.0,038.0,030.8,20.5,0000.0,0006.79,0003.49,0003.16
2023-07-16 13:39:00,SystemResetWarning,0835.5,5.00,000.00,029.5,026.5,000.0,038.1,030.8,21.4,0000.0,0006.80,0003.49,0003.16
2023-07-16 13:40:00,SystemResetWarning,0835.5,5.02,000.00,029.5,026.8,000.0,038.1,030.9,21.7,0000.0,0006.99,0003.50,0003.16
2023-07-16 13:41:00,SystemResetWarning,0835.6,4.99,000.00,029.5,027.1,000.0,038.1,031.0,22.3,0000.0,0006.67,0003.47,0003.15
2023-07-16 13:42:00,SystemResetWarning,0835.6,5.00,000.00,029.5,027.4,000.0,038.1,031.0,22.7,0000.0,0006.78,0003.46,0003.14
2023-07-16 13:43:00,SystemResetWarning,0835.6,5.00,000.00,029.5,027.6,000.0,038.1,031.1,23.1,0000.0,0007.59,0003.49,0003.14
2023-07-16 13:44:00,SystemResetWarning,0835.6,5.00,000.00,029.6,027.8,000.0,038.1,031.1,22.8,0000.0,0008.47,0003.50,0003.13
2023-07-16 13:45:00,SystemResetWarning,0835.6,5.00,000.00,029.6,028.0,000.0,038.1,031.1,22.3,0000.0,0009.76,0003.55,0003.14
2023-07-16 13:46:00,SystemResetWarning,0835.6,5.00,000.00,029.6,028.1,000.0,038.1,031.2,22.6,0000.0,0010.07,0003.60,0003.14
2023-07-16 13:47:00,SystemResetWarning,0835.6,5.00,000.00,029.6,028.2,000.0,038.1,031.2,22.8,0000.0,0010.89,0003.66,0003.15
2023-07-16 13:48:00,SystemResetWarning,0835.6,5.00,000.00,029.7,028.3,000.0,038.1,031.2,23.3,0000.0,0011.18,0003.70,0003.17
2023-07-16 13:49:00,SystemResetWarning,0835.6,5.00,000.00,029.7,028.4,000.0,038.1,031.3,23.6,0000.0,0011.21,0003.74,0003.21
2023-07-16 13:50:00,SystemResetWarning,0835.7,5.00,000.00,029.7,028.5,000.0,038.1,031.3,23.1,0000.0,0011.30,0003.81,0003.26
2023-07-16 13:51:00,SystemResetWarning,0835.8,4.99,000.00,029.7,028.5,000.0,038.2,031.4,23.0,0000.0,0011.82,0003.86,0003.31
2023-07-16 13:52:00,SystemResetWarning,0835.7,5.00,000.00,029.8,028.6,000.0,038.2,031.4,22.9,0000.0,0012.12,0003.97,0003.37
2023-07-16 13:53:00,SystemResetWarning,0835.7,5.00,000.00,029.8,028.7,000.0,038.2,031.4,23.1,0000.0,0012.25,0004.08,0003.44
2023-07-16 13:54:00,SystemResetWarning,0835.7,5.00,000.00,029.8,028.7,000.0,038.2,031.4,23.7,0000.0,0011.81,0004.15,0003.52
2023-07-16 13:55:00,SystemResetWarning,0835.8,5.01,000.00,029.9,028.7,000.0,038.3,031.5,24.0,0000.0,0011.39,0004.25,0003.62
2023-07-16 13:56:00,SystemResetWarning,0835.8,5.00,000.00,029.9,028.8,000.0,038.3,031.5,24.3,0000.0,0010.63,0004.33,0003.71
2023-07-16 13:57:00,SystemResetWarning,0835.8,4.99,000.00,029.9,028.1,000.0,038.2,031.5,24.4,0000.0,0010.99,0004.45,0003.79
2023-07-16 13:58:00,SystemResetWarning,0835.8,5.01,000.00,029.9,026.1,000.0,038.1,031.2,24.8,0000.0,0010.35,0004.50,0003.87
2023-07-16 13:59:00,SystemResetWarning,0835.7,5.01,000.00,029.7,025.1,000.0,038.0,031.0,25.2,0000.0,0010.16,0004.55,0003.95
